EW8310 Weather Reports


Display with metric or nautical units.
time (UTC)temp
F
wind
direction
speed
MPH
gust
MPH
rain 1hr
in
rain 24hr
in
rain mn
in
humidity
%
barometer
mb
20260503015150 82 113 2.0 6.0 0.00 0.00 0.00 21 1006.9
20260503014102 83 100 1.0 6.0 0.00 0.00 0.00 21 1006.9
20260503013603 83 154 1.0 4.0 0.00 0.00 0.00 21 1006.9
20260503013102 83 169 0.0 7.0 0.00 0.00 0.00 20 1006.8
20260503012820 83 104 3.0 7.0 0.00 0.00 0.00 20 1006.9
20260503012102 83 124 1.0 4.0 0.00 0.00 0.00 20 1006.9
20260503011602 83 78 0.0 7.0 0.00 0.00 0.00 20 1006.9
20260503011324 84 168 0.0 9.0 0.00 0.00 0.00 20 1006.9
20260503010601 84 131 3.0 9.0 0.00 0.00 0.00 20 1007.0
20260503005602 84 200 0.0 9.0 0.00 0.00 0.00 20 1007.0
20260503005102 85 110 2.0 9.0 0.00 0.00 0.00 19 1006.9
20260503004825 85 179 0.0 6.0 0.00 0.00 0.00 19 1006.8
20260503004322 85 134 2.0 7.0 0.00 0.00 0.00 18 1006.8
20260503003601 86 86 4.0 7.0 0.00 0.00 0.00 18 1006.8
20260503003328 86 147 0.0 3.0 0.00 0.00 0.00 17 1006.8
20260503002601 86 69 0.0 3.0 0.00 0.00 0.00 18 1006.8
20260503002101 87 345 0.0 7.0 0.00 0.00 0.00 17 1006.8
20260503001601 87 166 1.0 7.0 0.00 0.00 0.00 16 1006.9
20260503001100 87 180 3.0 6.0 0.00 0.00 0.00 16 1006.8
20260503000600 88 161 1.0 3.0 0.00 0.00 0.00 16 1006.8
20260503000100 88 231 0.0 3.0 0.00 0.00 0.00 16 1006.8
20260502235820 88 125 0.0 6.0 0.00 0.00 0.00 16 1006.8
20260502235100 88 186 2.0 7.0 0.00 0.00 0.00 16 1006.9
20260502234821 87 197 4.0 10.0 0.00 0.00 0.00 16 1006.8
20260502234100 87 135 3.0 10.0 0.00 0.00 0.00 15 1006.8
20260502233827 87 180 4.0 10.0 0.00 0.00 0.00 16 1006.8
20260502233100 86 278 3.0 6.0 0.00 0.00 0.00 14 1006.8
20260502232559 87 295 2.0 5.0 0.00 0.00 0.00 14 1006.8
20260502232321 86 171 2.0 5.0 0.00 0.00 0.00 15 1006.9
20260502231559 86 296 2.0 5.0 0.00 0.00 0.00 15 1007.0
20260502231542 87 224 2.0 7.0 0.00 0.00 0.00 15 1007.2
20260502230817 87 264 1.0 9.0 0.00 0.00 0.00 14 1007.1
20260502230059 87 169 2.0 10.0 0.00 0.00 0.00 14 1007.1
20260502225559 87 188 5.0 13.0 0.00 0.00 0.00 14 1007.2
20260502225058 88 166 3.0 13.0 0.00 0.00 0.00 13 1007.2
20260502224559 88 276 1.0 10.0 0.00 0.00 0.00 14 1007.1
20260502224320 89 220 3.0 10.0 0.00 0.00 0.00 14 1007.2
20260502223558 89 186 3.0 10.0 0.00 0.00 0.00 14 1007.2
20260502223058 89 217 0.0 13.0 0.00 0.00 0.00 14 1007.2
20260502222558 89 203 2.0 13.0 0.00 0.00 0.00 14 1007.2
20260502222058 90 224 5.0 7.0 0.00 0.00 0.00 14 1007.3
20260502221557 89 152 2.0 7.0 0.00 0.00 0.00 14 1007.3
20260502221057 88 207 3.0 7.0 0.00 0.00 0.00 14 1007.3
20260502220822 87 138 4.0 6.0 0.00 0.00 0.00 14 1007.5
20260502220057 85 48 2.0 7.0 0.00 0.00 0.00 16 1007.5
20260502215557 85 96 3.0 7.0 0.00 0.00 0.00 16 1007.5
20260502215316 86 61 4.0 9.0 0.00 0.00 0.00 15 1007.8
20260502214557 87 251 3.0 9.0 0.00 0.00 0.00 15 1008.1
20260502214056 85 182 1.0 3.0 0.00 0.00 0.00 17 1008.1
20260502213557 85 307 0.0 2.0 0.00 0.00 0.00 18 1008.2
20260502213056 84 148 0.0 3.0 0.00 0.00 0.00 17 1008.2
20260502212557 84 292 2.0 4.0 0.00 0.00 0.00 17 1008.2
20260502212056 84 120 1.0 6.0 0.00 0.00 0.00 18 1008.2
20260502211556 83 192 0.0 6.0 0.00 0.00 0.00 20 1008.3
20260502211056 83 32 2.0 6.0 0.00 0.00 0.00 19 1008.4
20260502210556 84 59 2.0 6.0 0.00 0.00 0.00 19 1008.4
20260502210056 83 89 0.0 10.0 0.00 0.00 0.00 20 1008.5
20260502205556 82 86 3.0 10.0 0.00 0.00 0.00 20 1008.5
20260502205318 83 123 2.0 6.0 0.00 0.00 0.00 20 1008.6
20260502204556 83 73 2.0 7.0 0.00 0.00 0.00 20 1008.6
20260502204056 83 49 2.0 7.0 0.00 0.00 0.00 19 1008.7
20260502203555 83 63 2.0 6.0 0.00 0.00 0.00 18 1008.8
20260502203055 83 344 2.0 4.0 0.00 0.00 0.00 19 1008.8
20260502202555 84 306 2.0 6.0 0.00 0.00 0.00 18 1009.0
20260502202054 85 49 0.0 9.0 0.00 0.00 0.00 18 1009.0
20260502201555 85 199 3.0 9.0 0.00 0.00 0.00 19 1009.1
20260502201055 87 247 4.0 9.0 0.00 0.00 0.00 18 1009.1
20260502200555 87 204 3.0 11.0 0.00 0.00 0.00 16 1009.1
20260502200054 87 243 1.0 11.0 0.00 0.00 0.00 16 1009.2
20260502195822 88 202 3.0 9.0 0.00 0.00 0.00 16 1009.4
20260502195540 87 79 0.0 7.0 0.00 0.00 0.00 15 1009.5
20260502194554 87 226 4.0 10.0 0.00 0.00 0.00 16 1009.5
20260502194054 87 169 4.0 10.0 0.00 0.00 0.00 16 1009.5
20260502193554 86 176 5.0 10.0 0.00 0.00 0.00 18 1009.5
20260502193054 85 141 4.0 11.0 0.00 0.00 0.00 18 1009.6
20260502192553 85 127 4.0 11.0 0.00 0.00 0.00 19 1009.6
20260502192054 84 164 4.0 9.0 0.00 0.00 0.00 19 1009.6
20260502191554 85 137 5.0 10.0 0.00 0.00 0.00 18 1009.7
20260502191317 85 199 4.0 10.0 0.00 0.00 0.00 20 1009.7
20260502190554 85 176 4.0 11.0 0.00 0.00 0.00 19 1009.8
20260502190054 85 97 3.0 11.0 0.00 0.00 0.00 20 1009.9
20260502185552 85 113 5.0 12.0 0.00 0.00 0.00 20 1009.9
20260502185053 85 196 6.0 12.0 0.00 0.00 0.00 19 1010.0
20260502184816 85 169 0.0 9.0 0.00 0.00 0.00 20 1010.0
20260502184053 85 83 5.0 9.0 0.00 0.00 0.00 21 1010.1
20260502183553 84 188 3.0 10.0 0.00 0.00 0.00 21 1010.2
20260502183053 83 162 5.0 10.0 0.00 0.00 0.00 21 1010.3
20260502182815 83 180 3.0 13.0 0.00 0.00 0.00 22 1010.3
20260502182052 82 216 6.0 13.0 0.00 0.00 0.00 24 1010.4
20260502181553 83 138 5.0 12.0 0.00 0.00 0.00 23 1010.5
20260502181052 83 123 4.0 12.0 0.00 0.00 0.00 23 1010.5
20260502180552 82 120 4.0 12.0 0.00 0.00 0.00 22 1010.5
20260502180314 82 118 3.0 12.0 0.00 0.00 0.00 23 1010.5
20260502170318 79 59 5.0 11.0 0.00 0.00 0.00 26 1010.9
20260502164050 78 83 4.0 13.0 0.00 0.00 0.00 28 1010.8
20260502163550 78 83 4.0 13.0 0.00 0.00 0.00 28 1010.7
20260502163051 78 68 5.0 11.0 0.00 0.00 0.00 28 1010.7
20260502162550 77 69 5.0 10.0 0.00 0.00 0.00 29 1010.7
20260502162049 78 100 5.0 11.0 0.00 0.00 0.00 29 1010.7
20260502162029 77 62 5.0 13.0 0.00 0.00 0.00 29 1010.7
20260502161049 77 87 7.0 13.0 0.00 0.00 0.00 30 1010.7
20260502160548 77 90 6.0 14.0 0.00 0.00 0.00 30 1010.5
20260502160311 77 72 6.0 14.0 0.00 0.00 0.00 30 1010.5
20260502152047 75 65 6.0 16.0 0.00 0.00 0.00 31 1010.3
20260502151548 75 62 6.0 14.0 0.00 0.00 0.00 32 1010.2
20260502151048 75 123 5.0 14.0 0.00 0.00 0.00 32 1010.2
20260502150548 74 357 6.0 18.0 0.00 0.00 0.00 32 1010.1
20260502130546 59 109 0.0 2.0 0.00 0.00 0.00 39 1008.7
20260502123302 58 4 0.0 0.0 0.00 0.00 0.00 43 1008.5
20260502122805 58 6 0.0 0.0 0.00 0.00 0.00 42 1008.3
20260502122045 58 7 0.0 0.0 0.00 0.00 0.00 43 1008.3
20260502121544 58 7 0.0 0.0 0.00 0.00 0.00 43 1008.3
20260502121044 57 7 0.0 0.0 0.00 0.00 0.00 44 1008.2
20260502120544 58 8 0.0 0.0 0.00 0.00 0.00 43 1008.3
20260502120310 58 8 0.0 0.0 0.00 0.00 0.00 42 1008.3
20260502115544 58 8 0.0 0.0 0.00 0.00 0.00 40 1008.2
20260502115043 59 8 0.0 0.0 0.00 0.00 0.00 40 1008.3
20260502114542 59 8 0.0 0.0 0.00 0.00 0.00 42 1008.2
20260502114042 60 14 0.0 0.0 0.00 0.00 0.00 39 1008.4
20260502113542 60 20 0.0 0.0 0.00 0.00 0.00 39 1008.4
20260502113305 60 20 0.0 0.0 0.00 0.00 0.00 39 1008.4
20260502112543 60 340 0.0 0.0 0.00 0.00 0.00 39 1008.5
20260502112043 60 319 0.0 0.0 0.00 0.00 0.00 39 1008.5
20260502111802 60 85 0.0 0.0 0.00 0.00 0.00 36 1008.5
20260502111042 60 86 0.0 0.0 0.00 0.00 0.00 33 1008.6
20260502110541 60 86 0.0 0.0 0.00 0.00 0.00 36 1008.5
20260502110042 60 10 0.0 1.0 0.00 0.00 0.00 40 1008.5
20260502105541 60 1 0.0 2.0 0.00 0.00 0.00 42 1008.6
20260502105042 60 355 0.0 2.0 0.00 0.00 0.00 41 1008.5
20260502104541 60 312 0.0 0.0 0.00 0.00 0.00 39 1008.5
20260502104041 60 312 0.0 0.0 0.00 0.00 0.00 39 1008.5
20260502103541 61 288 0.0 0.0 0.00 0.00 0.00 41 1008.4
20260502103041 61 288 0.0 0.0 0.00 0.00 0.00 38 1008.3
20260502102541 62 288 0.0 0.0 0.00 0.00 0.00 38 1008.2
20260502102040 62 6 0.0 0.0 0.00 0.00 0.00 35 1008.2
20260502102023 63 4 0.0 0.0 0.00 0.00 0.00 37 1008.2
20260502101042 64 52 0.0 0.0 0.00 0.00 0.00 35 1008.2
20260502100541 64 59 0.0 0.0 0.00 0.00 0.00 32 1008.2
20260502100305 65 13 0.0 0.0 0.00 0.00 0.00 31 1008.2
20260502091040 64 42 0.0 0.0 0.00 0.00 0.00 35 1008.3
20260502090540 63 31 0.0 0.0 0.00 0.00 0.00 37 1008.3
20260502071255 69 252 0.0 0.0 0.00 0.00 0.00 29 1008.5
20260502070801 69 252 0.0 0.0 0.00 0.00 0.00 29 1008.4
20260502070036 69 49 0.0 0.0 0.00 0.00 0.00 30 1008.4
20260502065532 70 85 0.0 2.0 0.00 0.00 0.00 28 1008.4
20260502065035 70 104 0.0 2.0 0.00 0.00 0.00 28 1008.3
20260502064800 70 80 0.0 1.0 0.00 0.00 0.00 28 1008.3
20260502064036 70 89 0.0 1.0 0.00 0.00 0.00 28 1008.3
20260502063536 71 104 0.0 2.0 0.00 0.00 0.00 26 1008.2
20260502063036 72 135 0.0 2.0 0.00 0.00 0.00 25 1008.1
20260502062536 73 137 0.0 1.0 0.00 0.00 0.00 24 1008.1
20260502062036 74 155 0.0 5.0 0.00 0.00 0.00 23 1007.8
20260502061536 74 23 0.0 7.0 0.00 0.00 0.00 23 1007.9
20260502061032 75 319 1.0 7.0 0.00 0.00 0.00 23 1007.8
20260502060535 75 35 2.0 9.0 0.00 0.00 0.00 23 1007.7
20260502060035 75 100 3.0 9.0 0.00 0.00 0.00 24 1007.7
20260502055535 74 310 2.0 7.0 0.00 0.00 0.00 24 1007.7
20260502055035 74 35 1.0 6.0 0.00 0.00 0.00 25 1007.7
20260502054536 74 330 2.0 7.0 0.00 0.00 0.00 25 1007.7
20260502054034 74 52 2.0 7.0 0.00 0.00 0.00 24 1007.7
20260502053740 74 89 0.0 2.0 0.00 0.00 0.00 26 1007.7
20260502053625 74 25 1.0 4.0 0.00 0.00 0.00 26 1007.6
20260502052534 74 302 0.0 3.0 0.00 0.00 0.00 26 1007.6
20260502052034 74 28 0.0 4.0 0.00 0.00 0.00 25 1007.6
20260502051534 74 312 0.0 5.0 0.00 0.00 0.00 25 1007.4
20260502051033 74 8 0.0 5.0 0.00 0.00 0.00 25 1007.4
20260502050534 74 6 1.0 6.0 0.00 0.00 0.00 25 1007.5
20260502050034 75 338 0.0 6.0 0.00 0.00 0.00 25 1007.4
20260502045534 75 350 2.0 6.0 0.00 0.00 0.00 25 1007.4
20260502045034 75 76 0.0 9.0 0.00 0.00 0.00 24 1007.5
20260502044800 75 338 3.0 12.0 0.00 0.00 0.00 25 1007.4
20260502044033 74 61 4.0 12.0 0.00 0.00 0.00 26 1007.3
20260502043533 75 348 0.0 9.0 0.00 0.00 0.00 26 1007.3
20260502043033 75 344 2.0 9.0 0.00 0.00 0.00 25 1007.3
20260502042534 75 24 1.0 5.0 0.00 0.00 0.00 25 1007.2
20260502042033 75 292 2.0 7.0 0.00 0.00 0.00 24 1007.3
20260502041752 76 329 1.0 11.0 0.00 0.00 0.00 24 1007.2
20260502041032 76 17 4.0 11.0 0.00 0.00 0.00 24 1007.1
20260502040528 76 35 4.0 7.0 0.00 0.00 0.00 24 1007.1
20260502040032 76 61 2.0 11.0 0.00 0.00 0.00 24 1007.0
20260502035755 75 0 5.0 11.0 0.00 0.00 0.00 24 1006.9
20260502035315 75 61 3.0 7.0 0.00 0.00 0.00 24 1006.9
20260502034531 74 320 2.0 5.0 0.00 0.00 0.00 25 1006.8
20260502034031 74 45 3.0 5.0 0.00 0.00 0.00 26 1006.9
20260502033533 74 49 1.0 5.0 0.00 0.00 0.00 26 1006.8
20260502033032 74 323 0.0 2.0 0.00 0.00 0.00 26 1006.8
20260502032528 74 24 0.0 2.0 0.00 0.00 0.00 26 1006.5
20260502032027 74 35 0.0 2.0 0.00 0.00 0.00 25 1006.5
20260502031531 74 354 0.0 2.0 0.00 0.00 0.00 26 1006.5
20260502031031 74 41 0.0 1.0 0.00 0.00 0.00 26 1006.5
20260502030753 73 18 0.0 0.0 0.00 0.00 0.00 26 1006.4
20260502030031 73 20 0.0 0.0 0.00 0.00 0.00 26 1006.3
20260502025531 73 310 0.0 0.0 0.00 0.00 0.00 28 1006.3
20260502025030 73 310 0.0 0.0 0.00 0.00 0.00 28 1006.2
20260502025014 74 310 0.0 0.0 0.00 0.00 0.00 26 1006.0
20260502024030 75 310 0.0 0.0 0.00 0.00 0.00 25 1006.1
20260502023526 76 309 0.0 0.0 0.00 0.00 0.00 24 1006.0
20260502023030 76 306 0.0 2.0 0.00 0.00 0.00 22 1006.0
20260502022530 77 302 0.0 3.0 0.00 0.00 0.00 22 1005.9
20260502022030 77 299 1.0 4.0 0.00 0.00 0.00 21 1005.8
20260502021530 77 312 1.0 4.0 0.00 0.00 0.00 21 1005.9
20260502021030 77 310 2.0 4.0 0.00 0.00 0.00 21 1005.8
20260502020529 78 309 0.0 6.0 0.00 0.00 0.00 21 1005.8
20260502020025 78 298 1.0 6.0 0.00 0.00 0.00 20 1005.7
20260502015525 79 302 2.0 6.0 0.00 0.00 0.00 20 1005.7